Regional Weather Roundup
Issued by NWS Upton, NY

Home | Current Version | Previous Version | Text Only | Print | Product List | Glossary On
Versions: 1 2 3 4 5 6 7 8 9 10 11 12 13 14 15 16 17 18 19 20 21 22 23 24 25 26 27
000
ASUS41 KOKX 290804
RWROKX

REGIONAL WEATHER ROUNDUP
NATIONAL WEATHER SERVICE NEW YORK NY
400 AM EDT FRI JUL 29 2016

NOTE: "FAIR" INDICATES FEW OR NO CLOUDS BELOW 12,000 FEET WITH NO
SIGNIFICANT WEATHER AND/OR OBSTRUCTIONS TO VISIBILITY.

NYZ071-072-176-178-NJZ106-104-290900-
NEW YORK CITY METRO AREA

CITY           SKY/WX    TMP DP  RH WIND       PRES   REMARKS
Central Park   LGT RAIN  73  70  90 VRB3      29.86F FOG
LaGuardia APRT CLOUDY    76  71  85 NW9       29.82F
Kennedy INTL   LGT RAIN  76  71  85 NE7       29.83F
Newark/Liberty LGT RAIN  74  72  93 N13       29.83F
Bronx Bot Gard   N/A     73  70  88 NW6       29.86R
Wall St Helipt CLOUDY    75  72  88 NE5       29.83F
Teterboro      RAIN      72  70  93 N7        29.83F FOG
$$

NYZ177-179-078>081-290900-
LONG ISLAND NEW YORK

CITY           SKY/WX    TMP DP  RH WIND       PRES   REMARKS
Farmingdale    CLOUDY    74  71  91 NE7       29.83F
MacArthur/ISP  CLOUDY    75  72  90 N5        29.83F
Shirley        LGT RAIN  74  72  93 CALM      29.84F
Riverhead      NOT AVBL
Westhampton    CLOUDY    75  72  90 CALM      29.85F FOG
Southhampton     N/A     75  73  94 SW1       29.80S
Bridgehampton    N/A     73  73 100 CALM      29.83F
East Hampton   CLOUDY    74  73  98 S5        29.84S FOG
Montauk          N/A     74  74 100 CALM      29.86F
$$

NYZ052-065-067-290900-
HUDSON VALLEY

CITY           SKY/WX    TMP DP  RH WIND       PRES   REMARKS
White Plains   LGT RAIN  72  70  93 N7        29.85F FOG
Newburgh       LGT RAIN  72  72 100 VRB5      29.88F FOG
Montgomery     LGT RAIN  72  70  93 CALM      29.86F FOG
Poughkeepsie   LGT RAIN  74  71  91 CALM      29.85F FOG
Albany         LGT RAIN  69  67  93 SE3       29.87F FOG
$$

NJZ001-105-106-008-010-013-015-019>022-104-290900-
NEW JERSEY

CITY           SKY/WX    TMP DP  RH WIND       PRES   REMARKS
Newark/Liberty LGT RAIN  74  72  93 N13       29.83F
Teterboro      RAIN      72  70  93 N7        29.83F FOG
Caldwell       LGT RAIN  73  70  90 NE5       29.84F
Morristown     CLOUDY    73  70  88 NE3       29.84F FOG
Somerville     LGT RAIN  74  72  93 CALM      29.82S FOG
Linden         DRIZZLE   75  71  86 CALM      29.84F
Sussex         LGT RAIN  71  70  96 E3        29.85F
Abdover          N/A     72  70  93 NE6       29.86F
Trenton        CLOUDY    74  71  91 N6        29.82S
Millville      CLOUDY    74  72  93 N6        29.78F FOG
Atlantic City  LGT RAIN  74  72  93 NW5       29.80S FOG
Wrightstown    NOT AVBL
Toms River     CLOUDY    74  73  97 N5        29.82R FOG
Belmar         CLOUDY    74  71  91 N3        29.83F
$$

PAZ047>061-062-071-290900-
EASTERN PENNSYLVANIA

CITY           SKY/WX    TMP DP  RH WIND       PRES   REMARKS
Philadelphia   CLOUDY    75  73  93 N8        29.82S FOG
Allentown      RAIN      73  70  90 CALM      29.85F FOG
Scranton       CLOUDY    70  69  97 CALM      29.86F FOG
$$

CTZ002-004>006-009-010-012-RIZ004-006-007-MAZ004-011-015-290900-
SOUTHERN NEW ENGLAND
 IN CT

CITY           SKY/WX    TMP DP  RH WIND       PRES   REMARKS
Bradley INTL   LGT RAIN  73  69  87 N5        29.86F
Hartford       LGT RAIN  77  71  82 CALM      29.85S
Danbury        LGT RAIN  72  70  93 CALM      29.88F FOG
Wtrbury/Oxford   N/A     72  66  83 NW3       29.90S
Bridgeport     LGT RAIN  76  70  82 CALM      29.85R
Meriden        LGT RAIN  75  69  81 NW3       29.85F
New Haven      LGT RAIN  74  71  91 NW3       29.86S
Chester        FAIR      73  72  94 CALM      29.86S
Groton         FOG       76  74  93 NE3       29.84F VSB 1/2
Wilimantic     LGT RAIN  75  74  96 CALM      29.86F

 IN RI

CITY           SKY/WX    TMP DP  RH WIND       PRES   REMARKS
Providence     LGT RAIN  75  73  93 CALM      29.85F FOG
Block Island   FOG       75  75 100 S6        29.86F VSB 1
Westerly       FOG       75  72  90 CALM      29.85F VSB 1/4
 IN MA

CITY           SKY/WX    TMP DP  RH WIND       PRES   REMARKS
Boston         LGT RAIN  77  73  87 SW9       29.84F
Worchester     RAIN      71  67  87 W9        29.90S
Westfield      LGT RAIN  72  68  87 N6        29.87R
Provincetown   PTCLDY    74  73  97 S8        29.85F
Nantucket      FOG       70  70 100 S5        29.87F VSB 1/4
$$

ANZ330-335-338-340-345-350-353-355-290900-
COASTAL MARINE OBSERVATIONS


STATION/POSITION TIME  SKY/WX   TEMP    WIND        PRES    VSBY  WAVE
                                AIR SEA DIR/SP/G                  HT/PER
                 (UTC)          (F)     (DEG/KT/KT) (MB)    (MI)  (FT/S)
NY HARB ENTRANCE 0650            75 73  140/  2/  4 1010.0          1/ 8
20S FIRE ISLAND  0650            77 78   60/  4/  6 1010.1          1/ 6
GREAT SOUTH BAY  0715            78 83   40/  4/  6   N/A
23 SSW MONTAUK P 0650            75 73  190/  2/  4 1011.4          1/ 8
15 E BARNEGAT LI 0700               78                N/A           2/ 3
HUDSON CANYON    0650            79 80              1010.3          1/ 7
KINGS POINT      0700            75 75              1010.2
EXECUTION ROCKS  NOT AVBL
CENTRAL LI SOUND NOT AVBL
EASTERN LI SOUND NOT AVBL
ROBBINS REEF     0700            77     290/  2/  2 1009.6
$$


>>>>>>>>>>>>>>>>>>>>>>>>>>>> KEY <<<<<<<<<<<<<<<<<<<<<<<<<<<
>                                                          <
>     SKY/WX - Sky Condition/Present Weather               <
>     TMP    - Temperature in Fahrenheit                   <
>     DP     - Dew Point in Fahrenheit                     <
>     RH     - Relative Humidity in Percent                <
>     WIND   - Direction (from) and Speed in MPH           <
>     PRES   - Mean Sea Level Pressure (inches of Hg)      <
>     WCI    - Wind Chill Index                            <
>     VSB    - VISIBILITY IN MILES                         <
>     HX     - HEAT INDEX                                  <
>     TC     - TEMPERATURE IN CELSIUS                      <
>     VRB    - VARIABLE WIND DIRECTION                     <
>                                                          <
>>>>>>>>>>>>>>>>>>>>>>>>>>>> KEY <<<<<<<<<<<<<<<<<<<<<<<<<<<




USA.gov is the U.S. government's official web portal to all federal, state and local government web resources and services.